Date String (YYYY-MM-DD hh:mm:ss) UTC,Instrument flags,Ambient pressure (hPa),Sample flow (lpm),Bypass flow (lpm),Sample temperature (°C),Ambient temperature (°C),ASC tube jacket temperature (°C),LED temperature (°C),Box temperature (°C),Sample RH (%),Span deviation,Mass concentration (μg/m³),Mass concentration (μg/m³),Mass concentration (μg/m³)
DateTimeUTC,F1_M11,P_M11,Q1_M11,Q2_M11,T1_M11,T2_M11,T3_M11,T4_M11,T5_M11,U1_M11,ZSPAN_M11,X0_M11,X2_M11,X1_M11
2022-07-24 00:00:00,,0828.0,5.00,0.00,31.9,28.2,00.0,40.1,32.4,32.3,0000.0,0013.72,0005.92,0004.61
2022-07-24 00:01:00,,0828.0,5.01,0.00,31.8,27.5,00.0,40.0,32.3,32.2,0000.0,0012.63,0005.84,0004.59
2022-07-24 00:02:00,,0828.0,5.00,0.00,31.8,27.2,00.0,40.0,32.2,32.8,0000.0,0011.80,0005.75,0004.55
2022-07-24 00:03:00,,0827.9,4.99,0.00,31.6,27.2,00.0,39.9,32.0,33.1,0000.0,0011.62,0005.62,0004.52
2022-07-24 00:04:00,,0828.0,5.00,0.00,31.5,27.4,00.0,39.9,32.0,33.4,0000.0,0011.45,0005.58,0004.51
2022-07-24 00:05:00,,0828.0,4.99,0.00,31.4,27.5,00.0,39.9,32.0,34.3,0000.0,0011.39,0005.57,0004.51
2022-07-24 00:06:00,,0827.9,5.01,0.00,31.3,27.7,00.0,39.8,32.0,34.4,0000.0,0011.47,0005.56,0004.50
2022-07-24 00:07:00,,0827.9,5.02,0.00,31.3,27.9,00.0,39.8,32.1,35.0,0000.0,0012.46,0005.60,0004.51
2022-07-24 00:08:00,,0827.9,5.00,0.00,31.3,28.1,00.0,39.8,32.2,35.2,0000.0,0012.35,0005.61,0004.50
2022-07-24 00:09:00,,0827.9,4.99,0.00,31.5,28.3,00.0,39.7,32.3,34.9,0000.0,0012.08,0005.62,0004.51
2022-07-24 00:10:00,,0827.9,5.01,0.00,31.7,28.4,00.0,39.7,32.4,33.7,0000.0,0011.16,0005.61,0004.50
2022-07-24 00:11:00,,0827.9,5.01,0.00,31.8,28.6,00.0,39.7,32.5,33.4,0000.0,0011.25,0005.60,0004.50
2022-07-24 00:12:00,,0827.9,5.00,0.00,31.9,28.4,00.0,39.7,32.4,33.3,0000.0,0011.33,0005.61,0004.50
2022-07-24 00:13:00,,0827.8,4.99,0.00,31.9,27.7,00.0,39.7,32.3,33.1,0000.0,0011.29,0005.59,0004.51
2022-07-24 00:14:00,,0827.8,5.00,0.00,31.8,27.3,00.0,39.7,32.2,33.5,0000.0,0011.48,0005.62,0004.53
2022-07-24 00:15:00,,0827.8,5.01,0.00,31.7,27.2,00.0,39.7,32.1,33.6,0000.0,0011.58,0005.64,0004.55
2022-07-24 00:16:00,,0827.8,4.99,0.00,31.6,27.3,00.0,39.7,32.0,33.4,0000.0,0011.70,0005.67,0004.57
2022-07-24 00:17:00,,0827.9,5.01,0.00,31.5,27.5,00.0,39.7,32.0,33.5,0000.0,0011.81,0005.73,0004.57
2022-07-24 00:18:00,,0827.9,4.99,0.00,31.4,27.7,00.0,39.7,32.0,33.4,0000.0,0010.91,0005.73,0004.57
2022-07-24 00:19:00,,0827.9,5.01,0.00,31.4,27.9,00.0,39.7,32.0,34.2,0000.0,0011.00,0005.76,0004.60
2022-07-24 00:20:00,,0827.9,4.99,0.00,31.3,28.1,00.0,39.7,32.1,34.6,0000.0,0010.90,0005.76,0004.62
2022-07-24 00:21:00,,0827.9,4.99,0.00,31.3,28.2,00.0,39.7,32.1,33.9,0000.0,0011.11,0005.81,0004.65
2022-07-24 00:22:00,,0827.9,5.00,0.00,31.3,28.4,00.0,39.7,32.2,33.6,0000.0,0011.20,0005.80,0004.66
2022-07-24 00:23:00,,0827.9,5.00,0.00,31.2,28.5,00.0,39.7,32.2,34.2,0000.0,0011.27,0005.81,0004.67
2022-07-24 00:24:00,,0827.9,5.00,0.00,31.2,28.5,00.0,39.6,32.2,34.4,0000.0,0011.29,0005.83,0004.67
2022-07-24 00:25:00,,0827.9,5.02,0.00,31.2,28.0,00.0,39.5,32.1,35.0,0000.0,0010.88,0005.79,0004.66
2022-07-24 00:26:00,,0827.9,4.99,0.00,31.2,27.4,00.0,39.5,32.1,35.0,0000.0,0010.72,0005.74,0004.64
2022-07-24 00:27:00,,0827.9,5.01,0.00,31.3,27.2,00.0,39.4,32.0,34.9,0000.0,0010.52,0005.70,0004.62
2022-07-24 00:28:00,,0827.9,4.99,0.00,31.3,27.3,00.0,39.4,32.0,34.0,0000.0,0010.39,0005.67,0004.62
2022-07-24 00:29:00,,0827.9,5.00,0.00,31.3,27.4,00.0,39.4,32.0,33.5,0000.0,0010.47,0005.70,0004.61
2022-07-24 00:30:00,,0828.0,5.01,0.00,31.3,27.6,00.0,39.4,32.0,33.3,0000.0,0010.29,0005.68,0004.59
2022-07-24 00:31:00,,0828.0,5.00,0.00,31.3,27.8,00.0,39.4,32.0,33.2,0000.0,0010.22,0005.64,0004.57
2022-07-24 00:32:00,,0828.0,5.00,0.00,31.2,28.0,00.0,39.4,32.0,33.7,0000.0,0009.93,0005.54,0004.54
2022-07-24 00:33:00,,0828.1,5.00,0.00,31.2,28.2,00.0,39.5,32.1,33.1,0000.0,0009.74,0005.53,0004.52
2022-07-24 00:34:00,,0828.1,5.00,0.00,31.2,28.3,00.0,39.5,32.1,33.2,0000.0,0009.80,0005.51,0004.49
2022-07-24 00:35:00,,0828.1,5.00,0.00,31.2,28.5,00.0,39.5,32.1,33.7,0000.0,0009.82,0005.51,0004.49
2022-07-24 00:36:00,,0828.1,5.00,0.00,31.2,28.3,00.0,39.5,32.1,33.6,0000.0,0010.10,0005.52,0004.48
2022-07-24 00:37:00,,0828.1,5.01,0.00,31.1,27.6,00.0,39.4,32.0,34.1,0000.0,0010.64,0005.56,0004.47
2022-07-24 00:38:00,,0828.0,4.99,0.00,31.1,27.2,00.0,39.3,31.9,34.3,0000.0,0010.73,0005.54,0004.45
2022-07-24 00:39:00,,0828.1,4.99,0.00,31.0,27.1,00.0,39.3,31.8,33.7,0000.0,0011.11,0005.51,0004.43
2022-07-24 00:40:00,,0828.0,5.00,0.00,30.8,27.2,00.0,39.3,31.7,33.2,0000.0,0010.96,0005.44,0004.40
2022-07-24 00:41:00,,0828.0,4.99,0.00,30.7,27.4,00.0,39.3,31.7,33.7,0000.0,0010.90,0005.36,0004.36
2022-07-24 00:42:00,,0828.0,5.00,0.00,30.7,27.6,00.0,39.3,31.8,33.9,0000.0,0011.07,0005.40,0004.34
2022-07-24 00:43:00,,0828.1,5.00,0.00,30.7,27.8,00.0,39.3,31.8,34.0,0000.0,0011.42,0005.49,0004.34
2022-07-24 00:44:00,,0828.1,5.00,0.00,30.6,28.0,00.0,39.2,31.9,33.7,0000.0,0011.43,0005.46,0004.33
2022-07-24 00:45:00,,0828.1,5.00,0.00,30.6,28.2,00.0,39.2,31.9,33.6,0000.0,0011.35,0005.47,0004.33
2022-07-24 00:46:00,,0828.1,5.00,0.00,30.6,28.3,00.0,39.2,32.0,33.5,0000.0,0011.59,0005.48,0004.31
2022-07-24 00:47:00,,0828.2,5.00,0.00,30.6,28.5,00.0,39.2,32.0,33.1,0000.0,0011.86,0005.45,0004.29
2022-07-24 00:48:00,,0828.2,5.00,0.00,30.6,28.4,00.0,39.2,32.0,33.2,0000.0,0011.44,0005.38,0004.26
2022-07-24 00:49:00,,0828.2,5.00,0.00,30.6,27.8,00.0,39.1,31.9,33.0,0000.0,0011.38,0005.36,0004.25
2022-07-24 00:50:00,,0828.2,4.99,0.00,30.5,27.3,00.0,39.0,31.8,33.4,0000.0,0010.88,0005.35,0004.23
2022-07-24 00:51:00,,0828.2,5.00,0.00,30.5,27.1,00.0,39.0,31.7,33.6,0000.0,0010.85,0005.32,0004.22
2022-07-24 00:52:00,,0828.3,5.00,0.00,30.3,27.2,00.0,39.0,31.6,33.8,0000.0,0010.81,0005.33,0004.22
2022-07-24 00:53:00,,0828.2,5.00,0.00,30.3,27.3,00.0,39.0,31.6,34.1,0000.0,0010.69,0005.30,0004.20
2022-07-24 00:54:00,,0828.3,5.01,0.00,30.2,27.5,00.0,39.0,31.6,34.8,0000.0,0010.35,0005.19,0004.18
2022-07-24 00:55:00,,0828.3,4.99,0.00,30.3,27.7,00.0,38.9,31.7,35.0,0000.0,0010.70,0005.22,0004.17
2022-07-24 00:56:00,,0828.3,5.00,0.00,30.5,27.9,00.0,38.9,31.8,33.9,0000.0,0010.87,0005.24,0004.16
2022-07-24 00:57:00,,0828.4,5.00,0.00,30.6,28.1,00.0,38.9,31.9,32.2,0000.0,0010.79,0005.20,0004.13
2022-07-24 00:58:00,,0828.4,5.00,0.00,30.6,28.2,00.0,38.9,31.9,32.4,0000.0,0010.88,0005.15,0004.10
2022-07-24 00:59:00,,0828.4,5.00,0.00,30.6,28.4,00.0,39.0,31.9,32.3,0000.0,0010.71,0005.17,0004.09
